Location: Burgberg
(50.1428°N, 11.0671°E)
Time: 13:56:57
(UTC+00:00)

Cosmos 2228 - Pass Details

Date: 26 January 2020
Orbit: 588 x 619 km, 82.5° (Epoch: 16 February)

Event Time Altitude Azimuth Distance (km) Brightness Sun altitude
Exits shadow 05:31:16 16° 248° (WSW) 1,622 4.7 -13.9°
Maximum altitude 05:33:41 25° 291° (WNW) 1,265 4.0 -13.5°
Drops below altitude 10° 05:37:19 10° 347° (NNW) 1,986 5.4 -12.9°
Sets 05:39:53 0° 1° (N) 2,891 6.4 -12.5°
